Погода в Вознесенском

Россия / Чувашская Республика     55°46′26″N   47°53′31″E
темп.,
°C
ветер,
м/с
пор.,
м/с
влажн.,
%
обл.,
%
осадки,
мм/ч
давл.,
гПа
погр.,
м
16 июня, ср
ср1600:00+17вюв228897 0.1 101128
03:00+16в369147 0.1 101097
06:00+20вюв388282 0.0 1008235
09:00+24ююв476261 0.0 1007528
12:00+26ююв445569 0.0 1006950
15:00+27ююз23570 0.0 10051332
18:00+26зсз247216 0.1 1005152
21:00+18ссз6149327 2.2 1007472
17 июня, чт
чт1700:00+16с615914 0.2 1011610
03:00+13ссз511950 0.2 1013285
06:00+15ссз510870 0.0 1015360
09:00+19сз57660 0.0 1016910
12:00+21сз68460 0.0 10171908
15:00+21сз585239 0.0 10172375
18:00+18ссз4106493 0.0 1019339
21:00+14с5116772 0.0 1021289
18 июня, пт
пт1800:00+11ссз48720 0.0 1023134
03:00+9ссз36790 0.0 102590
06:00+12ссз48731 0.0 1026259
09:00+16с465886 0.0 1027839
12:00+19ссз45465 0.0 10271533
15:00+21ссз35438 0.0 10261614
18:00+19з246697 0.0 1025125
21:00+14з227929 0.0 102618
19 июня, сб
сб1900:00+13зюз338743 0.0 102648
03:00+12з48935 0.0 1026134
06:00+16зюз4982100 0.0 1026238
09:00+21з587189 0.0 1025545
12:00+24з68636 0.0 10241294
15:00+25з68645 0.0 10231409
18:00+23з711775 0.0 1022487
21:00+19з411920 0.0 1023225
20 июня, вс
вс2000:00+17з38930 0.0 1023131
03:00+17зсз36930 0.0 1024106
06:00+20зсз47840 0.0 1024211
09:00+24зсз45700 0.0 1024604
12:00+27зсз56601 0.0 10231497
15:00+27з55585 0.0 10231501
18:00+25з58773 0.0 1022424
21:00+20з49905 0.0 1022153